N5615W KFXE-KTPA

Flight info

Callsign N5615W
Flight time N/A
Altitude 8000
Route HROCK2 HROCK LBV BRDGE9
Aircraft S22T/L-SDGRY/S

Departure

Time 2026-04-17 21:18
Airport Fort Lauderdale Executive Airport (KFXE)

Arrival

Time N/A
Airport Tampa International Airport (KTPA)
Time Latitude Longitude Altitude Speed Heading
2026-04-17 21:06 26.19463 -80.17065 23 ft 0 kts 221°
2026-04-17 21:14 26.19509 -80.17108 23 ft 13 kts 331°
2026-04-17 21:14 26.19570 -80.17065 24 ft 12 kts 313°
2026-04-17 21:15 26.19668 -80.17220 25 ft 21 kts 310°
2026-04-17 21:15 26.19736 -80.17334 26 ft 14 kts 260°
2026-04-17 21:15 26.19720 -80.17504 22 ft 31 kts 261°
2026-04-17 21:15 26.19694 -80.17755 19 ft 31 kts 264°
2026-04-17 21:16 26.19674 -80.17963 15 ft 19 kts 265°
2026-04-17 21:16 26.19684 -80.17991 15 ft 0 kts 319°
2026-04-17 21:16 26.19686 -80.17992 15 ft 2 kts 321°
2026-04-17 21:16 26.19732 -80.18003 14 ft 12 kts 353°
2026-04-17 21:17 26.19769 -80.17979 15 ft 0 kts 75°
2026-04-17 21:17 26.19771 -80.17968 15 ft 9 kts 83°
2026-04-17 21:17 26.19792 -80.17741 18 ft 54 kts 84°
2026-04-17 21:17 26.19846 -80.17190 60 ft 83 kts 84°
2026-04-17 21:18 26.19913 -80.16535 253 ft 86 kts 84°
2026-04-17 21:18 26.19976 -80.15830 453 ft 95 kts 82°
2026-04-17 21:18 26.20005 -80.15126 791 ft 88 kts 84°
2026-04-17 21:18 26.20071 -80.14427 1028 ft 90 kts 81°
2026-04-17 21:19 26.20116 -80.13753 1341 ft 89 kts 82°
2026-04-17 21:19 26.20167 -80.13033 1552 ft 96 kts 83°
2026-04-17 21:19 26.20333 -80.12357 1832 ft 95 kts 50°
2026-04-17 21:19 26.20988 -80.12111 1995 ft 113 kts 357°
2026-04-17 21:20 26.21700 -80.12415 2378 ft 106 kts 341°
2026-04-17 21:20 26.22313 -80.12926 2537 ft 129 kts 302°
2026-04-17 21:20 26.22577 -80.13882 2849 ft 123 kts 298°
2026-04-17 21:20 26.22939 -80.14732 3162 ft 121 kts 297°
2026-04-17 21:21 26.23267 -80.15570 3484 ft 117 kts 298°
2026-04-17 21:21 26.23603 -80.16410 3805 ft 116 kts 291°
2026-04-17 21:21 26.23852 -80.17216 4170 ft 112 kts 287°
2026-04-17 21:21 26.24113 -80.18063 4448 ft 114 kts 292°
2026-04-17 21:22 26.24443 -80.18821 4800 ft 111 kts 302°
2026-04-17 21:22 26.24860 -80.19559 5091 ft 112 kts 300°
2026-04-17 21:22 26.25224 -80.20326 5423 ft 110 kts 300°
2026-04-17 21:22 26.25604 -80.21058 5726 ft 111 kts 297°
2026-04-17 21:23 26.25941 -80.21831 6037 ft 110 kts 292°
2026-04-17 21:23 26.26279 -80.22586 6394 ft 109 kts 297°
2026-04-17 21:23 26.26577 -80.23369 6719 ft 110 kts 285°
2026-04-17 21:23 26.26887 -80.24159 7019 ft 112 kts 293°
2026-04-17 21:24 26.27208 -80.24945 7358 ft 112 kts 292°
2026-04-17 21:24 26.27531 -80.25737 7707 ft 113 kts 292°
2026-04-17 21:24 26.27852 -80.26540 7988 ft 117 kts 292°
2026-04-17 21:24 26.28208 -80.27437 8015 ft 139 kts 291°
2026-04-17 21:25 26.28625 -80.28493 8016 ft 157 kts 292°
2026-04-17 21:25 26.29083 -80.29641 8009 ft 167 kts 292°
2026-04-17 21:25 26.29557 -80.30838 8009 ft 171 kts 292°
2026-04-17 21:25 26.30046 -80.32066 8008 ft 174 kts 293°
2026-04-17 21:26 26.30538 -80.33304 8011 ft 176 kts 292°
2026-04-17 21:26 26.31034 -80.34553 8007 ft 177 kts 292°
2026-04-17 21:26 26.31533 -80.35813 8008 ft 178 kts 293°
2026-04-17 21:26 26.32034 -80.37077 8007 ft 179 kts 293°
2026-04-17 21:27 26.32532 -80.38331 8008 ft 180 kts 293°
2026-04-17 21:27 26.33038 -80.39607 8009 ft 180 kts 293°
2026-04-17 21:27 26.33545 -80.40889 8008 ft 180 kts 292°
2026-04-17 21:27 26.34050 -80.42162 8008 ft 179 kts 292°
2026-04-17 21:28 26.34551 -80.43432 8007 ft 179 kts 293°
2026-04-17 21:28 26.35053 -80.44700 8006 ft 179 kts 293°
2026-04-17 21:28 26.35555 -80.45971 8006 ft 179 kts 292°
2026-04-17 21:28 26.36057 -80.47237 8001 ft 178 kts 292°
2026-04-17 21:29 26.36557 -80.48504 8000 ft 178 kts 293°
2026-04-17 21:29 26.37056 -80.49769 7999 ft 179 kts 292°
2026-04-17 21:29 26.37558 -80.51036 8000 ft 179 kts 292°
2026-04-17 21:29 26.38057 -80.52304 7999 ft 178 kts 292°
2026-04-17 21:30 26.38558 -80.53570 8002 ft 179 kts 292°
2026-04-17 21:30 26.39058 -80.54843 7999 ft 179 kts 294°
2026-04-17 21:30 26.39555 -80.56096 7999 ft 179 kts 294°
2026-04-17 21:30 26.40057 -80.57367 8000 ft 179 kts 294°
2026-04-17 21:31 26.40558 -80.58639 7998 ft 179 kts 294°
2026-04-17 21:31 26.41058 -80.59909 7997 ft 179 kts 294°
2026-04-17 21:31 26.41559 -80.61181 7997 ft 179 kts 294°
2026-04-17 21:31 26.42061 -80.62456 7991 ft 179 kts 294°
2026-04-17 21:32 26.42563 -80.63728 7993 ft 179 kts 294°
2026-04-17 21:32 26.43065 -80.65003 7993 ft 179 kts 294°
2026-04-17 21:32 26.43566 -80.66274 7993 ft 179 kts 294°
2026-04-17 21:32 26.44064 -80.67543 7993 ft 179 kts 294°
2026-04-17 21:33 26.44565 -80.68817 7993 ft 179 kts 294°
2026-04-17 21:33 26.45057 -80.70070 7994 ft 179 kts 294°
2026-04-17 21:33 26.45560 -80.71348 7995 ft 180 kts 294°
2026-04-17 21:33 26.46062 -80.72624 7997 ft 180 kts 294°
2026-04-17 21:34 26.46566 -80.73905 8000 ft 181 kts 294°
2026-04-17 21:34 26.47070 -80.75189 7998 ft 180 kts 294°
2026-04-17 21:34 26.48074 -80.77746 7991 ft 179 kts 294°
2026-04-17 21:35 26.48572 -80.79017 7988 ft 179 kts 294°
2026-04-17 21:35 26.49073 -80.80293 7988 ft 179 kts 294°
2026-04-17 21:35 26.49572 -80.81569 7988 ft 179 kts 294°
2026-04-17 21:35 26.50064 -80.82824 7989 ft 179 kts 294°
2026-04-17 21:36 26.50564 -80.84098 7992 ft 179 kts 293°
2026-04-17 21:36 26.51141 -80.85327 7987 ft 179 kts 304°
2026-04-17 21:36 26.51845 -80.86480 7987 ft 179 kts 304°
2026-04-17 21:36 26.52535 -80.87639 7983 ft 180 kts 303°
2026-04-17 21:37 26.53222 -80.88802 7986 ft 179 kts 303°
2026-04-17 21:37 26.53907 -80.89964 7986 ft 179 kts 303°
2026-04-17 21:37 26.54594 -80.91125 7976 ft 179 kts 303°
2026-04-17 21:37 26.55274 -80.92279 7977 ft 181 kts 303°
2026-04-17 21:38 26.55969 -80.93455 7977 ft 182 kts 303°
2026-04-17 21:38 26.56665 -80.94634 7972 ft 182 kts 303°
2026-04-17 21:38 26.57361 -80.95813 7978 ft 182 kts 303°
2026-04-17 21:38 26.58057 -80.96994 7971 ft 182 kts 303°
2026-04-17 21:39 26.58749 -80.98166 7988 ft 182 kts 303°
2026-04-17 21:39 26.59446 -80.99344 7988 ft 181 kts 303°
2026-04-17 21:39 26.60139 -81.00523 7987 ft 181 kts 303°
2026-04-17 21:39 26.60832 -81.01697 7987 ft 181 kts 303°
2026-04-17 21:40 26.61524 -81.02872 7982 ft 181 kts 303°
2026-04-17 21:40 26.62216 -81.04045 7982 ft 181 kts 303°
2026-04-17 21:40 26.62910 -81.05224 7984 ft 181 kts 303°
2026-04-17 21:40 26.63601 -81.06397 7982 ft 181 kts 303°
2026-04-17 21:41 26.64283 -81.07555 7984 ft 181 kts 303°
2026-04-17 21:41 26.64974 -81.08728 7986 ft 180 kts 303°
2026-04-17 21:41 26.65663 -81.09900 7984 ft 181 kts 303°
2026-04-17 21:41 26.66353 -81.11075 7985 ft 180 kts 303°
2026-04-17 21:42 26.67044 -81.12247 7979 ft 181 kts 303°
2026-04-17 21:42 26.67405 -81.12860 7979 ft 181 kts 303°